Location: Bernay
(48.6766°N, 2.9386°E)
Time: 08:02:19
(UTC+00:00)

BREEZE-M DEB (TANK) - Pass Details

Date: 12 January 2026
Orbit: 608 x 17104 km, 49.5° (Epoch: 15 February)

Event Time Altitude Azimuth Distance (km) Brightness Sun altitude
Rises 18:44:06 0° 275° (W) 3,830 8.5 -23.7°
Reaches altitude 10° 18:47:07 10° 276° (W) 2,332 7.0 -24.2°
Enters shadow 18:51:11 76° 315° (NW) 635 3.0 -24.9°
